Powrót do katalogu

STARLINK-37916

AktywnyŁącznośćSSO
NORAD 69565·PAYLOAD·🇺🇸 United States

Wystrzelony Jun 15, 2026 z Vandenberg Space Force Base

Loading…

Następne Przeloty (najbliższe 24 godziny)

TLE

ŚwieżeSource: CelesTrak SupGP

Epoka: Sep 15, 2026, 04:03 UTC

1 69565C 26135V   26258.16923611 -.00062175  00000+0 -19304-2 0  2589
2 69565  97.2838 285.9850 0000979  92.3993  17.8349 15.33465071    15

Śledź STARLINK-37916 w czasie rzeczywistym z AllMySat

Download on the App Store